46P/Wirtanen                                                  

Epoch 2002 Sept. 3.0 TT = JDT 2452520.5  

T 2002 Aug. 26.74581 TT                                 Nakano

q   1.0587677            (2000.0)            P               Q

n   0.18107038     Peri.  356.39806     +0.19683918     -0.95949688

a   3.0943619      Node    82.17368     +0.90453978     +0.09841947

e   0.6578397      Incl.   11.73815     +0.37823555     +0.26396845

P   5.44

From 506 observations 1991-2002, mean residual 0".86.

   Nongravitational parameters A1 = +0.37 +/- 0.01, A2 = -0.1405 +/- 0.0001.

Residuals in seconds of arc 

1991/                     970209 897  0.5-  0.7-    020811 213  0.3-  0.6+  

910708 372 (0.1-  4.8+)Y  970209 360  1.6-  0.8-    020812 620  0.9-  0.9-  

910708 372 (3.4-  0.1-)Y  970209 360  1.6-  0.9-    020812 620  0.2-  0.7-  

910708 372  2.0-  0.3- Y  970211 711  0.2-  0.6-    020812 620  0.4-  0.9-  

910708 372 (5.2-  3.9-)Y  970211 711  0.2-  0.7-    020812 620  0.3-  0.8-  

910709 372 (4.6-  3.1-)   970211 950  0.4-  1.2-    020812 170  0.2-  0.6-  

910709 372  1.2-  1.5-    970211 950  0.7+  0.3+    020812 170  0.0   0.9-  

910816 657  0.1+  1.4-    970212 950  1.2-  0.1-    020812 170  0.2-  1.1-  

910816 657  0.2-  0.5+    970212 950 (2.6-  0.5-)   020813 B18  0.6+  0.0   

910905 657  1.0+  0.7+    970212 950  2.1-  0.5-    020813 B18  0.5+  0.1-  

910905 657  1.0+  0.6+    970212 950  1.1-  0.5-    020813 B18  0.3+  0.2+  

911005 056  0.3+  2.0+    970212 950  0.5+  0.6+    020813 B18  0.7+  0.3+  

911005 056  0.4+  0.4-    970212 950  0.3-  0.1+    020813 B18  0.8+  0.3+  

911008 056  0.2+  2.0-    970212 950  0.1-  0.1-    020813 349  0.9-  0.3-  

911017 056 (1.8+  2.2-)   970212 950  0.6-  0.7-    020813 349  0.9-  0.6+  

911017 056 (3.2+  1.0-)   970212 950  0.0   0.6-    020813 349  0.4-  0.4-  

911109 900 (9.8+  3.2+)   970212 950  0.3-  0.7-    020813 349  0.0   0.2-  

911109 900 (4.4-  0.5-)   970212 950  0.8-  0.7-    020814 B18  0.2+  0.6+  

911110 411 (7.0+  0.9+)   970212 950  1.5-  1.7-    020814 B18  0.6+  0.3+  

911110 411  1.2+  0.9-    970213 711  0.0   1.0-    020814 B18  0.2+  0.5+  

911206 411 (4.5+  0.2+)   970213 711  0.3+  0.9-    020814 B18  0.3+  0.1+  

1995/                     970214 950  1.0-  0.9-    020814 B18  0.7+  0.4+  

950626 809  1.4+  0.8-    970214 950  0.8-  0.5-    020814 B18  0.4+  0.3+  

1996/                     970214 950  1.4-  0.7-    020814 B18  0.6+  0.3+  

960320 809  0.5-  0.0     970214 950  1.5-  0.8-    020814 B18  0.7+  0.6+  

960425 809  0.9+  0.6+    970214 950  1.6-  1.5-    020814 B18  0.1-  0.9+  

960425 809  1.6+  1.3+ Y  970214 950  1.3-  1.6-    020814 B18  0.7+  0.5+  

960425 809  0.5+  1.1- Y  970214 950  2.0-  0.7+    020814 B18  0.6+  0.2+  

960425 809  0.4-  0.4+    970223 897  0.3+  1.1-    020814 B18  1.4+  0.4+  

960425 809  0.1-  0.5+    970223 897  0.1+  1.3-    020814 B18  0.3+  0.5+  

960425 809  0.7-  0.7+    970224 360  0.5-  1.3-    020814 235  1.0+  2.0+  

960511 809  0.1+  0.4+    970224 360  0.6-  1.1-    020814 613  0.1+  0.3+  

960511 809  0.4-  0.3+    970302 057  1.1+  2.1+    020814 613  0.5+  0.1+  

960511 809  0.2-  0.2+    970305 897  0.2-  1.2-    020815 613  0.9-  0.6+  

960511 809  0.4-  0.0     970305 897  0.5+  1.2-    020815 613  0.2-  0.5+  

960512 809  0.5-  0.3+    970307 360  0.7-  0.4-    020815 613  0.3+  0.7+  

960512 809  0.1-  0.2+    970307 360  0.5-  0.4-    020818 213  0.1-  0.7-  

960512 809  0.2-  0.3+    970307 605  1.7+  0.8+    020818 213  0.3+  0.6-  

960512 809  0.1-  0.2+    970307 605  2.1+  0.4-    020819 B18  0.9+  0.4+  

960513 809  0.3+  0.4+    970309 046  0.1-  0.6-    020819 B18  0.9+  0.6+  

960513 809  0.0   0.3+    970309 046  1.2-  0.8-    020819 B18  0.7+  0.5+  

960513 809  0.0   0.2+    970309 046  0.3-  0.9-    020819 B18  0.5+  0.6+  

960513 809  0.0   0.0     970317 711  0.8+  0.8-    020819 B18  0.6+  0.1-  

960613 568  0.7-  1.1+    970317 711  0.9+  0.7-    020819 B18  1.0+  0.4+  

960613 568  0.6-  1.4+    970317 711  1.0+  0.6-    020819 B18  0.8+  0.4+  

960613 568  0.6-  1.1+    970317 711  1.0+  0.9-    020819 B18  1.3+  0.1+  

960613 568  0.4-  0.8+    970322 605 (3.3+  0.3+)   020819 B18  1.5+  0.0   

960614 568  0.8-  1.2+    970322 605 (3.0+  0.5-)   020819 B18  0.6+  0.3+  

960614 568  0.5-  1.1+    970322 605  1.5+  0.1-    020819 B18  1.8+  0.2+  

960615 675  0.8-  0.5+    970423 897  0.3+  0.4-    020819 B18  0.7+  0.6+  

960615 675  0.7-  0.5+    970423 897  1.8+  0.7-    020819 B18  0.9+  0.3+  

960615 675  0.7-  0.5+    970423 897  1.3+  0.5-    020819 B18  1.4+  0.1+  

960615 675  0.8-  0.4+    970423 118  1.1+  0.4-    020820 B18  0.6+  0.5+  

960615 675  0.7-  0.3+    970423 118  0.5+  0.5-    020820 B18  1.7+  0.6+  

960616 675  0.8-  0.5+    970423 118  0.8+  0.4-    020820 B18  0.7+  0.5+  

960616 675  0.6-  0.5+    970424 118  0.2+  0.1-    020820 B18  0.9+  0.6+  

960616 675  0.7-  0.5+    970424 118  0.7-  0.3+    020820 B18  0.7+  0.6+  

960617 675  1.0-  0.5+    970424 118  1.0+  0.2-    020820 349  0.1-  0.7+  

960617 675  0.9-  0.5+    970424 118  0.2+  0.4+    020820 349  0.2+  0.2+  

960617 675  0.9-  0.3+    970426 861  0.7+  1.2-    020820 349  0.0   0.4+  

960617 675  0.9-  0.3+    970427 861  1.7+  0.5-    020820 349  0.4+  0.5+  

960618 809  0.4-  0.1-    970427 861  0.3-  1.1+    020827 349  0.4+  0.3+  

960618 809  0.3-  0.6+    970429 950  0.6-  0.1+    020827 349  0.2+  0.0   

960618 809  1.3-  0.8+    970429 950  0.0   0.1+    020827 349  0.3+  0.0   

960619 809  0.1+  0.4-    970429 950  0.3-  0.1+    020828 349  0.1-  0.9+  

960619 809  0.3+  0.3-    970429 950  1.3-  0.0     020828 349  0.0   1.0+  

960619 809  0.4-  0.3-    970430 967 (6.8+  0.3-)   020828 349  0.0   0.7+  

960709 809  0.2-  0.5+    970430 967  0.2-  0.1+    020828 349  0.1+  0.8+  

960709 809  0.1-  0.4+    970501 967 (2.7+  0.3-)   020830 349  0.0   0.6+  

960710 809  0.7-  1.1+    970501 967  0.4+  0.1+    020830 349  0.1-  0.5+  

960710 809  0.7-  1.0+    970501 967 (4.6+  0.2+)   020830 349  0.2+  0.2+  

960711 809  0.0   0.6+    970501 967  0.7+  0.5-    020830 349  0.0   0.3+  

960711 809  0.7-  0.5+    970503 118  1.1+  0.0     020903 613  0.7-  0.7+  

960712 809  0.1-  0.4+    970503 118  1.7+  0.1-    020904 493  0.6+  0.3+  

960712 809  0.1-  0.4+    970504 360  0.2+  0.2+    020904 493  0.5+  0.1+  

960810 421 (2.5-  1.1-)   970504 360  0.5+  0.1-    020905 493  0.5+  0.5+  

960810 360  0.7-  0.3+    970504 118  0.8+  0.2+    020905 493  0.9+  0.7+  

960810 360  1.3-  0.2+    970504 118  1.1+  0.1-    020906 493 (2.4+  0.3+) 

960810 421  2.1-  1.1-    970509 950  0.4-  0.4+    020906 493 (2.9+  1.5+) 

960810 360  1.3-  1.2+    970509 950  0.4-  0.2+    020913 613  0.1-  0.7+  

960810 421  1.3-  1.9+    970509 950  0.6-  0.2+    020913 613  0.2-  1.2+  

960817 568  0.8-  0.4+    970509 950  0.3-  0.3+    020914 170 (7.2+  1.6+) 

960817 568  1.0-  0.3+    970509 950  1.8-  0.3+    020914 170 (6.4+  6.9+) 

960817 568  1.1-  0.2+    970509 950  0.2+  0.3+    020916 613  0.1+  0.9+  

960817 568  0.9-  0.3+    970509 950  0.5-  0.4+    020916 613  0.5-  1.2+  

960817 568  0.9-  0.1+    970509 950  0.7-  0.2+    020916 613  0.3+  1.0+  

960817 568  1.0-  0.2+    970509 950  0.5-  0.1+    020916 613  0.4-  1.1+  

960818 809  0.9+  1.1+    970509 950  0.3-  0.1+    020918 360  0.5+  0.8+  

960818 809  0.7-  0.6+    970509 950  0.3-  0.0     020918 360  0.8+  0.8+  

960819 809  1.1-  0.1+    970509 950  0.4-  0.1+    020919 349  0.0   1.3+  

960819 809  0.2-  0.7+    970509 950  0.5-  0.2+    020919 349  0.9-  0.7+  

960819 360  0.6-  0.2+    970510 118  1.8+  0.1+    020919 349  0.3+  0.8+  

960819 360  1.4-  0.4+    970510 118  1.7+  0.0     020919 349  0.5-  0.8+  

960819 360  0.5-  0.2-    970510 950  0.1-  0.2+    020923 340  1.1+  0.7+  

960820 809 (2.4-  0.6+)   970510 950  0.5+  0.3+    020923 340  0.7+  0.7+  

960820 809  0.4-  0.8+    970510 950  0.8+  0.4+    020923 340  1.2+  0.8+  

960821 809  0.2+  1.3+    970510 950  0.4+  0.2+    020923 340  0.9+  1.0+  

960821 809  0.1-  0.7+    970510 950  0.6-  0.3+    020924 349  0.2+  0.8+  

960822 809  0.2-  0.5+    970510 950  0.6-  0.3+    020924 349  0.3+  1.0+  

960822 809  0.4-  0.6+    970510 950  0.4-  0.2+    020924 349  0.3+  1.0+  

960823 809  0.1+  0.8+    970511 950  0.2-  0.2+    020924 349  0.5+  0.8+  

960823 809  0.2-  1.0+    970511 950  0.5-  0.2+    020924 349  0.5+  0.7+  

960910 809  0.0   0.6+    970511 950  0.0   0.3+    021001 349  1.6-  2.0+  

960910 809  0.5+  0.3+    970511 950  0.2-  0.3+    021001 349  1.8-  2.1+  

960911 809  0.4+  0.5+    970511 950  0.6+  0.2+    021001 349 (2.2-  1.9+) 

960911 809  0.0   0.6+    970511 950  0.2-  0.5+    021001 349  1.8-  1.4+  

960912 809  0.6+  0.9+    970511 950  0.3-  0.4+    021003 349 (2.6-  2.3+) 

960912 809  0.5+  0.4+    970511 950  0.0   0.1+    021003 349 (2.4-  2.6+) 

960913 809 (2.9-  0.2+)   970512 950  0.2+  0.5+    021003 349 (2.7-  2.4+) 

960913 809  0.7+  0.1+    970512 950  0.2-  0.6+    021003 349 (1.5-  2.4+) 

960914 809 (2.8-  0.1+)   970512 950  0.4-  0.5+    021003 349  2.1-  1.5+  

960914 809  0.3+  0.9+    970512 950  0.4-  0.4+    021010 349  1.7-  2.0+  

960915 809 (2.6-  0.4+)   970512 950  0.3+  0.4+    021010 349  1.4-  2.0+  

960915 809  0.2+  0.8+    970512 950  0.7+  0.2+    021010 349  1.6-  1.5+  

960916 809  1.0-  0.5+    970512 950  0.5+  0.4+    021010 349  1.7-  1.9+  

960916 809  0.4+  0.3+    970514 711  0.6+  0.0     021010 349  2.1-  1.7+  

960917 809  0.6+  0.5+    970514 711  0.5+  0.1-    021012 340  2.1-  1.3+  

960919 696  0.6+  0.4+    970514 118  0.5+  0.0     021012 340  0.6-  1.8+  

960919 696  0.8+  0.4+    970514 118  0.4+  0.1-    021012 349  1.2-  1.4+  

960919 696  0.5+  0.3+    970517 118  1.2+  0.5-    021012 349 (2.1-  2.2+) 

